Content
SEND FEEDBACK

Daily
Averages
Monthly
Summary
France

ANNEMASSE, FRANCE


Home > Europe > France
Elevation: 1329 feet     Latitude: 46 12N     Longitude: 006 12E

WEATHER
 
SELECT A DAY
Number of Records: 306,426;   Date Range: 7/1/96 - 9/22/14
 
SHARE

PRINT THIS DATA

[ ← Previous Day ]
WEATHER ALMANAC - JULY 20, 2014
[ Next Day → ]
[ °C ]   °F
Weather ElementAverageHighLow
Temperature66.7 °F73.4 °F (10:50 am)57.2 °F (10:50 pm)
Dewpoint60.8 °F66.2 °F (8:20 am)55.4 °F (2:50 pm)
Humidity80.5 %100 % (9:20 pm)54 % (11:00 am)
Barometer29.92 in30.01 in (7:20 pm)29.84 in (1:00 am)
Wind Speed4.6 mph19.6 mph (6:00 pm)
Weather ElementAverage
Visibility8.7 mi
Wind DirectionESE (109.6 °)

Weather ElementTotal
Precipitation---
Cooling Degree Days0.3 (Base 65)
Growing Degree Days15.3 (Base 50)
Averaged from 67 records on July 20, 2014
WEATHER CONDITIONS BREAKOUT
WIND DIRECTION BREAKOUT
WEATHER BY HOUR - JULY 20, 2014
[ °C ]   °F
Local TimeTemperatureDewpointHumidityBarometerVisibilityWind DirectionWind SpeedGust SpeedPrecipitationEventsConditions
12:20 AM68.0 °F62.6 °F83 %29.86 inWSW (250°)1.2 mphClear
12:50 AM68.0 °F62.6 °F83 %29.86 inVariable1.2 mphClear
1:00 AM67.0 °F61.0 °F76 %29.84 inEast (100°)1.2 mph
1:20 AM68.0 °F62.6 °F83 %29.86 inVariable1.2 mphClear
1:50 AM66.2 °F62.6 °F88 %29.86 inVariable1.2 mphClear
2:00 AM67.0 °F62.0 °F79 %29.84 in14.0 miNW (310°)2.3 mphScattered Clouds
2:20 AM66.2 °F62.6 °F88 %29.89 inVariable1.2 mphClear
2:50 AM68.0 °F64.4 °F88 %29.89 inVariable1.2 mphClear
3:00 AM68.0 °F63.0 °F80 %29.84 inNorth2.3 mph
3:50 AM68.0 °F64.4 °F88 %29.89 inVariable2.3 mphClear
5:00 AM67.0 °F64.0 °F85 %29.85 in12.0 miENE (60°)2.3 mphPartly Cloudy
5:20 AM66.2 °F64.4 °F94 %29.89 inVariable2.3 mphClear
5:50 AM66.2 °F64.4 °F94 %29.89 inVariable1.2 mphClear
6:00 AM66.0 °F63.0 °F86 %29.86 inWest (270°)3.5 mph
6:20 AM66.2 °F64.4 °F94 %29.89 inVariable1.2 mphClear
6:50 AM66.2 °F64.4 °F94 %29.89 inVariable3.5 mphClear
7:00 AM67.0 °F63.0 °F83 %29.86 inNNE (20°)2.3 mph
7:20 AM68.0 °F64.4 °F88 %29.89 inVariable2.3 mphClear
7:50 AM68.0 °F64.4 °F88 %29.92 inSE (140°)3.5 mphClear
8:00 AM69.0 °F64.0 °F79 %29.88 in25.0 miESE (120°)4.6 mphPartly Cloudy
8:20 AM69.8 °F66.2 °F88 %29.92 in6.2 miNNE (20°)4.6 mphMostly Cloudy
8:50 AM71.6 °F66.2 °F83 %29.92 in6.2 miVariable3.5 mphMostly Cloudy
9:00 AM70.0 °F64.0 °F76 %29.89 inNNE (30°)3.5 mph
9:20 AM69.8 °F66.2 °F88 %29.95 in6.2 miESE (110°)4.6 mphMostly Cloudy
9:50 AM71.6 °F60.8 °F69 %29.95 in6.2 miVariable2.3 mphMostly Cloudy
10:00 AM71.0 °F59.0 °F58 %29.90 inNorth (350°)3.5 mph
10:20 AM71.6 °F60.8 °F69 %29.95 in6.2 miNNE (30°)4.6 mphScattered Clouds
10:50 AM73.4 °F60.8 °F65 %29.95 in6.2 miVariable2.3 mphScattered Clouds
11:00 AM72.0 °F59.0 °F54 %29.90 in25.0 miNNW (340°)2.3 mphScattered Clouds
11:20 AM73.4 °F60.8 °F65 %29.95 in6.2 miVariable2.3 mphMostly Cloudy
11:50 AM73.4 °F60.8 °F65 %29.95 in6.2 miVariable1.2 mphMostly Cloudy
12:00 PM72.0 °F59.0 °F55 %29.91 inNNE (30°)4.6 mph
12:20 PM71.6 °F60.8 °F69 %29.95 in6.2 miENE (70°)4.6 mphMostly Cloudy
12:50 PM71.6 °F62.6 °F73 %29.95 in6.2 miEast (80°)3.5 mphMostly Cloudy
1:00 PM71.0 °F62.0 °F65 %29.90 inENE (70°)3.5 mph
1:20 PM71.6 °F62.6 °F73 %29.95 in6.2 miVariable2.3 mphRainLight Rain Showers
1:50 PM71.6 °F62.6 °F73 %29.95 in6.2 miWest (270°)4.6 mphMostly Cloudy
2:00 PM71.0 °F63.0 °F68 %29.92 in19.0 miWest (280°)6.9 mphRainLight Rain Showers
2:20 PM69.8 °F57.2 °F64 %29.98 in6.2 miVariable2.3 mphRainLight Rain Showers
2:50 PM71.6 °F55.4 °F57 %29.92 in6.2 miVariable3.5 mphMostly Cloudy
3:00 PM70.0 °F59.0 °F59 %29.90 inEast (100°)5.8 mph
3:20 PM69.8 °F59.0 °F68 %29.92 in6.2 miSE (140°)3.5 mphRainLight Rain Showers
3:50 PM68.0 °F62.6 °F83 %29.92 in6.2 miVariable3.5 mphRainLight Rain Showers
4:00 PM68.0 °F60.0 °F68 %29.89 inEast (80°)2.3 mph
4:20 PM69.8 °F62.6 °F78 %29.92 in6.2 miWest (270°)3.5 mphRainLight Rain Showers
4:50 PM68.0 °F59.0 °F73 %29.89 in6.2 miVariable2.3 mphMostly Cloudy
5:00 PM68.0 °F60.0 °F68 %29.86 in31.0 miNNW (340°)1.2 mphRainLight Rain Showers
5:20 PM68.0 °F60.8 °F78 %29.86 in6.2 miVariable3.5 mphRain-ThunderstormLight Rain
5:50 PM66.2 °F59.0 °F78 %29.92 in3.1 miSSW (210°)18.4 mphRain-ThunderstormThunderstorms and Rain
6:00 PM62.0 °F57.0 °F79 %29.92 inSW (230°)19.6 mph
6:20 PM60.8 °F59.0 °F94 %29.95 in6.2 miSSW (210°)11.5 mphRain-ThunderstormRain
6:50 PM60.8 °F59.0 °F94 %29.95 in6.2 miSSW (210°)11.5 mphRainRain
7:00 PM61.0 °F58.0 °F85 %29.96 inSSW (200°)17.3 mph
7:20 PM60.8 °F59.0 °F94 %30.01 in4.3 miSSW (200°)18.4 mphRainRain
7:50 PM60.8 °F59.0 °F94 %30.01 in4.3 miSSW (200°)13.8 mphRainRain
8:00 PM61.0 °F57.0 °F84 %30.01 in4.0 miSSW (210°)13.8 mphRainRain
8:20 PM59.0 °F57.2 °F94 %30.01 in6.2 miSouth (180°)8.1 mphRainLight Rain
8:50 PM59.0 °F57.2 °F94 %30.01 in6.2 miVariable4.6 mphOvercast
9:00 PM61.0 °F57.0 °F82 %29.99 inWNW (300°)4.6 mph
9:20 PM59.0 °F59.0 °F100 %30.01 in6.2 miWest (280°)8.1 mphMostly Cloudy
9:50 PM60.8 °F57.2 °F88 %29.98 in6.2 miVariable2.3 mphMostly Cloudy
10:00 PM60.0 °F56.0 °F81 %29.96 inWest (280°)4.6 mph
10:20 PM60.8 °F57.2 °F88 %29.98 in6.2 miWNW (290°)3.5 mphMostly Cloudy
10:50 PM57.2 °F57.2 °F100 %29.98 in6.2 miCalmMostly Cloudy
11:00 PM58.0 °F56.0 °F92 %29.97 in25.0 miSW (220°)1.2 mphPartly Cloudy
11:20 PM57.2 °F57.2 °F100 %29.98 in6.2 miWSW (240°)3.5 mphOvercast
11:50 PM57.2 °F57.2 °F100 %29.98 in6.2 miVariable2.3 mphOvercast
Hourly data recorded from LSGG, located miles away from Annemasse, France







STORIES FROM OUR PARTNERS